Year,Month,Day,Hour,Minute,Value (Times are PST for temperature in C)
2020,04,11,00,00,8.80
2020,04,11,00,01,8.80
2020,04,11,00,02,8.80
2020,04,11,00,03,8.80
2020,04,11,00,04,8.80
2020,04,11,00,05,8.80
2020,04,11,00,06,8.80
2020,04,11,00,07,8.80
2020,04,11,00,08,8.80
2020,04,11,00,09,8.80
2020,04,11,00,10,8.80
2020,04,11,00,11,8.70
2020,04,11,00,12,8.70
2020,04,11,00,13,8.70
2020,04,11,00,14,8.70
2020,04,11,00,15,8.70
2020,04,11,00,16,8.70
2020,04,11,00,17,8.70
2020,04,11,00,18,8.70
2020,04,11,00,19,8.70
2020,04,11,00,20,8.80
2020,04,11,00,21,8.80
2020,04,11,00,22,8.80
2020,04,11,00,23,8.70
2020,04,11,00,24,8.70
2020,04,11,00,25,8.70
2020,04,11,00,26,8.70
2020,04,11,00,27,8.70
2020,04,11,00,28,8.70
2020,04,11,00,29,8.70
2020,04,11,00,30,8.70
2020,04,11,00,31,8.70
2020,04,11,00,32,8.70
2020,04,11,00,33,8.70
2020,04,11,00,34,8.70
2020,04,11,00,35,8.70
2020,04,11,00,36,8.80
2020,04,11,00,37,8.80
2020,04,11,00,38,8.80
2020,04,11,00,39,8.80
2020,04,11,00,40,8.80
2020,04,11,00,41,8.80
2020,04,11,00,42,8.80
2020,04,11,00,43,8.80
2020,04,11,00,44,8.80
2020,04,11,00,45,8.80
2020,04,11,00,46,8.80
2020,04,11,00,47,8.80
2020,04,11,00,48,8.80
2020,04,11,00,49,8.80
2020,04,11,00,50,8.70
2020,04,11,00,51,8.70
2020,04,11,00,52,8.70
2020,04,11,00,53,8.70
2020,04,11,00,54,8.70
2020,04,11,00,55,8.70
2020,04,11,00,56,8.60
2020,04,11,00,57,8.60
2020,04,11,00,58,8.60
2020,04,11,00,59,8.70
2020,04,11,01,00,8.70
2020,04,11,01,01,8.60
2020,04,11,01,02,8.60
2020,04,11,01,03,8.60
2020,04,11,01,04,8.60
2020,04,11,01,05,8.60
2020,04,11,01,06,8.60
2020,04,11,01,07,8.60
2020,04,11,01,08,8.60
2020,04,11,01,09,8.60
2020,04,11,01,10,8.60
2020,04,11,01,11,8.60
2020,04,11,01,12,8.60
2020,04,11,01,13,8.60
2020,04,11,01,14,8.50
2020,04,11,01,15,8.50
2020,04,11,01,16,8.50
2020,04,11,01,17,8.50
2020,04,11,01,18,8.50
2020,04,11,01,19,8.50
2020,04,11,01,20,8.50
2020,04,11,01,21,8.50
2020,04,11,01,22,8.50
2020,04,11,01,23,8.50
2020,04,11,01,24,8.50
2020,04,11,01,25,8.40
2020,04,11,01,26,8.40
2020,04,11,01,27,8.40
2020,04,11,01,28,8.40
2020,04,11,01,29,8.30
2020,04,11,01,30,8.30
2020,04,11,01,31,8.30
2020,04,11,01,32,8.30
2020,04,11,01,33,8.30
2020,04,11,01,34,8.20
2020,04,11,01,35,8.20
2020,04,11,01,36,8.20
2020,04,11,01,37,8.10
2020,04,11,01,38,8.10
2020,04,11,01,39,8.00
2020,04,11,01,40,8.00
2020,04,11,01,41,7.90
2020,04,11,01,42,7.90
2020,04,11,01,43,7.90
2020,04,11,01,44,7.80
2020,04,11,01,45,7.80
2020,04,11,01,46,7.80
2020,04,11,01,47,7.80
2020,04,11,01,48,7.80
2020,04,11,01,49,7.80
2020,04,11,01,50,7.90
2020,04,11,01,51,7.80
2020,04,11,01,52,7.80
2020,04,11,01,53,7.80
2020,04,11,01,54,7.80
2020,04,11,01,55,7.80
2020,04,11,01,56,7.80
2020,04,11,01,57,7.80
2020,04,11,01,58,7.80
2020,04,11,01,59,7.80
2020,04,11,02,00,7.70
2020,04,11,02,01,7.70
2020,04,11,02,02,7.70
2020,04,11,02,03,7.70
2020,04,11,02,04,7.70
2020,04,11,02,05,7.70
2020,04,11,02,06,7.60
2020,04,11,02,07,7.60
2020,04,11,02,08,7.60
2020,04,11,02,09,7.60
2020,04,11,02,10,7.60
2020,04,11,02,11,7.60
2020,04,11,02,12,7.60
2020,04,11,02,13,7.60
2020,04,11,02,14,7.60
2020,04,11,02,15,7.60
2020,04,11,02,16,7.60
2020,04,11,02,17,7.60
2020,04,11,02,18,7.60
2020,04,11,02,19,7.50
2020,04,11,02,20,7.50
2020,04,11,02,21,7.50
2020,04,11,02,22,7.50
2020,04,11,02,23,7.50
2020,04,11,02,24,7.50
2020,04,11,02,25,7.50
2020,04,11,02,26,7.40
2020,04,11,02,27,7.40
2020,04,11,02,28,7.40
2020,04,11,02,29,7.40
2020,04,11,02,30,7.40
2020,04,11,02,31,7.40
2020,04,11,02,32,7.40
2020,04,11,02,33,7.40
2020,04,11,02,34,7.30
2020,04,11,02,35,7.30
2020,04,11,02,36,7.30
2020,04,11,02,37,7.30
2020,04,11,02,38,7.30
2020,04,11,02,39,7.20
2020,04,11,02,40,7.20
2020,04,11,02,41,7.20
2020,04,11,02,42,7.20
2020,04,11,02,43,7.20
2020,04,11,02,44,7.20
2020,04,11,02,45,7.20
2020,04,11,02,46,7.20
2020,04,11,02,47,7.20
2020,04,11,02,48,7.20
2020,04,11,02,49,7.20
2020,04,11,02,50,7.10
2020,04,11,02,51,7.10
2020,04,11,02,52,7.10
2020,04,11,02,53,7.00
2020,04,11,02,54,7.00
2020,04,11,02,55,7.10
2020,04,11,02,56,7.10
2020,04,11,02,57,7.00
2020,04,11,02,58,7.00
2020,04,11,02,59,7.00
2020,04,11,03,00,6.90
2020,04,11,03,01,6.90
2020,04,11,03,02,6.90
2020,04,11,03,03,6.80
2020,04,11,03,04,6.80
2020,04,11,03,05,6.80
2020,04,11,03,06,6.80
2020,04,11,03,07,6.80
2020,04,11,03,08,6.80
2020,04,11,03,09,6.80
2020,04,11,03,10,6.80
2020,04,11,03,11,6.80
2020,04,11,03,12,6.90
2020,04,11,03,13,6.90
2020,04,11,03,14,6.90
2020,04,11,03,15,6.90
2020,04,11,03,16,6.90
2020,04,11,03,17,6.90
2020,04,11,03,18,6.90
2020,04,11,03,19,6.90
2020,04,11,03,20,6.90
2020,04,11,03,21,6.90
2020,04,11,03,22,6.90
2020,04,11,03,23,6.90
2020,04,11,03,24,6.90
2020,04,11,03,25,6.90
2020,04,11,03,26,6.90
2020,04,11,03,27,6.90
2020,04,11,03,28,6.90
2020,04,11,03,29,6.90
2020,04,11,03,30,6.90
2020,04,11,03,31,6.90
2020,04,11,03,32,6.80
2020,04,11,03,33,6.90
2020,04,11,03,34,6.90
2020,04,11,03,35,6.90
2020,04,11,03,36,6.90
2020,04,11,03,37,6.90
2020,04,11,03,38,6.90
2020,04,11,03,39,6.90
2020,04,11,03,40,6.90
2020,04,11,03,41,6.90
2020,04,11,03,42,6.80
2020,04,11,03,43,6.90
2020,04,11,03,44,6.80
2020,04,11,03,45,6.80
2020,04,11,03,46,6.80
2020,04,11,03,47,6.80
2020,04,11,03,48,6.80
2020,04,11,03,49,6.80
2020,04,11,03,50,6.80
2020,04,11,03,51,6.80
2020,04,11,03,52,6.80
2020,04,11,03,53,6.80
2020,04,11,03,54,6.80
2020,04,11,03,55,6.80
2020,04,11,03,56,6.80
2020,04,11,03,57,6.80
2020,04,11,03,58,6.80
2020,04,11,03,59,6.70
2020,04,11,04,00,6.70
2020,04,11,04,01,6.70
2020,04,11,04,02,6.70
2020,04,11,04,03,6.70
2020,04,11,04,04,6.70
2020,04,11,04,05,6.70
2020,04,11,04,06,6.70
2020,04,11,04,07,6.70
2020,04,11,04,08,6.60
2020,04,11,04,09,6.60
2020,04,11,04,10,6.60
2020,04,11,04,11,6.60
2020,04,11,04,12,6.60
2020,04,11,04,13,6.60
2020,04,11,04,14,6.60
2020,04,11,04,15,6.60
2020,04,11,04,16,6.50
2020,04,11,04,17,6.50
2020,04,11,04,18,6.50
2020,04,11,04,19,6.50
2020,04,11,04,20,6.50
2020,04,11,04,21,6.50
2020,04,11,04,22,6.50
2020,04,11,04,23,6.50
2020,04,11,04,24,6.50
2020,04,11,04,25,6.40
2020,04,11,04,26,6.40
2020,04,11,04,27,6.40
2020,04,11,04,28,6.40
2020,04,11,04,29,6.40
2020,04,11,04,30,6.40
2020,04,11,04,31,6.40
2020,04,11,04,32,6.40
2020,04,11,04,33,6.40
2020,04,11,04,34,6.30
2020,04,11,04,35,6.30
2020,04,11,04,36,6.30
2020,04,11,04,37,6.30
2020,04,11,04,38,6.30
2020,04,11,04,39,6.30
2020,04,11,04,40,6.30
2020,04,11,04,41,6.30
2020,04,11,04,42,6.30
2020,04,11,04,43,6.30
2020,04,11,04,44,6.30
2020,04,11,04,45,6.30
2020,04,11,04,46,6.30
2020,04,11,04,47,6.20
2020,04,11,04,48,6.30
2020,04,11,04,49,6.30
2020,04,11,04,50,6.30
2020,04,11,04,51,6.20
2020,04,11,04,52,6.20
2020,04,11,04,53,6.20
2020,04,11,04,54,6.20
2020,04,11,04,55,6.20
2020,04,11,04,56,6.20
2020,04,11,04,57,6.20
2020,04,11,04,58,6.30
2020,04,11,04,59,6.30
2020,04,11,05,00,6.30
2020,04,11,05,01,6.30
2020,04,11,05,02,6.30
2020,04,11,05,03,6.30
2020,04,11,05,04,6.30
2020,04,11,05,05,6.30
2020,04,11,05,06,6.30
2020,04,11,05,07,6.30
2020,04,11,05,08,6.30
2020,04,11,05,09,6.30
2020,04,11,05,10,6.30
2020,04,11,05,11,6.30
2020,04,11,05,12,6.20
2020,04,11,05,13,6.20
2020,04,11,05,14,6.20
2020,04,11,05,15,6.20
2020,04,11,05,16,6.20
2020,04,11,05,17,6.10
2020,04,11,05,18,6.10
2020,04,11,05,19,6.20
2020,04,11,05,20,6.10
2020,04,11,05,21,6.10
2020,04,11,05,22,6.10
2020,04,11,05,23,6.10
2020,04,11,05,24,6.10
2020,04,11,05,25,6.20
2020,04,11,05,26,6.10
2020,04,11,05,27,6.20
2020,04,11,05,28,6.20
2020,04,11,05,29,6.20
2020,04,11,05,30,6.20
2020,04,11,05,31,6.20
2020,04,11,05,32,6.20
2020,04,11,05,33,6.20
2020,04,11,05,34,6.20
2020,04,11,05,35,6.10
2020,04,11,05,36,6.10
2020,04,11,05,37,6.10
2020,04,11,05,38,6.10
2020,04,11,05,39,6.10
2020,04,11,05,40,6.10
2020,04,11,05,41,6.10
2020,04,11,05,42,6.00
2020,04,11,05,43,6.00
2020,04,11,05,44,6.00
2020,04,11,05,45,5.90
2020,04,11,05,46,5.90
2020,04,11,05,47,6.00
2020,04,11,05,48,5.90
2020,04,11,05,49,5.90
2020,04,11,05,50,5.90
2020,04,11,05,51,5.80
2020,04,11,05,52,5.90
2020,04,11,05,53,5.80
2020,04,11,05,54,5.80
2020,04,11,05,55,5.90
2020,04,11,05,56,5.90
2020,04,11,05,57,5.90
2020,04,11,05,58,5.90
2020,04,11,05,59,5.90
2020,04,11,06,00,5.90
2020,04,11,06,01,5.80
2020,04,11,06,02,5.80
2020,04,11,06,03,5.80
2020,04,11,06,04,5.80
2020,04,11,06,05,5.80
2020,04,11,06,06,5.80
2020,04,11,06,07,5.80
2020,04,11,06,08,5.80
2020,04,11,06,09,5.80
2020,04,11,06,10,5.80
2020,04,11,06,11,5.80
2020,04,11,06,12,5.80
2020,04,11,06,13,5.80
2020,04,11,06,14,5.80
2020,04,11,06,15,5.80
2020,04,11,06,16,5.80
2020,04,11,06,17,5.80
2020,04,11,06,18,5.80
2020,04,11,06,19,5.80
2020,04,11,06,20,5.80
2020,04,11,06,21,5.80
2020,04,11,06,22,5.80
2020,04,11,06,23,5.80
2020,04,11,06,24,5.80
2020,04,11,06,25,5.80
2020,04,11,06,26,5.80
2020,04,11,06,27,5.80
2020,04,11,06,28,5.80
2020,04,11,06,29,5.80
2020,04,11,06,30,5.80
2020,04,11,06,31,5.80
2020,04,11,06,32,5.80
2020,04,11,06,33,5.80
2020,04,11,06,34,5.70
2020,04,11,06,35,5.70
2020,04,11,06,36,5.70
2020,04,11,06,37,5.80
2020,04,11,06,38,5.80
2020,04,11,06,39,5.80
2020,04,11,06,40,5.80
2020,04,11,06,41,5.80
2020,04,11,06,42,5.80
2020,04,11,06,43,5.90
2020,04,11,06,44,5.90
2020,04,11,06,45,5.90
2020,04,11,06,46,6.00
2020,04,11,06,47,6.00
2020,04,11,06,48,6.00
2020,04,11,06,49,6.00
2020,04,11,06,50,6.00
2020,04,11,06,51,6.00
2020,04,11,06,52,6.00
2020,04,11,06,53,6.10
2020,04,11,06,54,6.10
2020,04,11,06,55,6.10
2020,04,11,06,56,6.10
2020,04,11,06,57,6.10
2020,04,11,06,58,6.10
2020,04,11,06,59,6.00
2020,04,11,07,00,6.00
2020,04,11,07,01,6.00
2020,04,11,07,02,6.00
2020,04,11,07,03,6.00
2020,04,11,07,04,5.90
2020,04,11,07,05,5.90
2020,04,11,07,06,5.90
2020,04,11,07,07,5.90
2020,04,11,07,08,5.90
2020,04,11,07,09,5.90
2020,04,11,07,10,5.90
2020,04,11,07,11,5.90
2020,04,11,07,12,5.90
2020,04,11,07,13,5.90
2020,04,11,07,14,5.90
2020,04,11,07,15,5.90
2020,04,11,07,16,5.90
2020,04,11,07,17,6.00
2020,04,11,07,18,6.00
2020,04,11,07,19,6.00
2020,04,11,07,20,6.00
2020,04,11,07,21,6.00
2020,04,11,07,22,6.00
2020,04,11,07,23,5.90
2020,04,11,07,24,6.00
2020,04,11,07,25,6.00
2020,04,11,07,26,6.10
2020,04,11,07,27,6.10
2020,04,11,07,28,6.10
2020,04,11,07,29,6.20
2020,04,11,07,30,6.20
2020,04,11,07,31,6.20
2020,04,11,07,32,6.20
2020,04,11,07,33,6.20
2020,04,11,07,34,6.30
2020,04,11,07,35,6.30
2020,04,11,07,36,6.30
2020,04,11,07,37,6.30
2020,04,11,07,38,6.30
2020,04,11,07,39,6.30
2020,04,11,07,40,6.30
2020,04,11,07,41,6.30
2020,04,11,07,42,6.40
2020,04,11,07,43,6.40
2020,04,11,07,44,6.40
2020,04,11,07,45,6.40
2020,04,11,07,46,6.50
2020,04,11,07,47,6.50
2020,04,11,07,48,6.50
2020,04,11,07,49,6.60
2020,04,11,07,50,6.60
2020,04,11,07,51,6.70
2020,04,11,07,52,6.70
2020,04,11,07,53,6.70
2020,04,11,07,54,6.80
2020,04,11,07,55,6.80
2020,04,11,07,56,6.80
2020,04,11,07,57,6.90
2020,04,11,07,58,6.90
2020,04,11,07,59,6.90
2020,04,11,08,00,6.90
2020,04,11,08,01,7.00
2020,04,11,08,02,7.00
2020,04,11,08,03,7.10
2020,04,11,08,04,7.10
2020,04,11,08,05,7.10
2020,04,11,08,06,7.20
2020,04,11,08,07,7.20
2020,04,11,08,08,7.20
2020,04,11,08,09,7.30
2020,04,11,08,10,7.30
2020,04,11,08,11,7.30
2020,04,11,08,12,7.30
2020,04,11,08,13,7.40
2020,04,11,08,14,7.40
2020,04,11,08,15,7.40
2020,04,11,08,16,7.50
2020,04,11,08,17,7.60
2020,04,11,08,18,7.60
2020,04,11,08,19,7.60
2020,04,11,08,20,7.70
2020,04,11,08,21,7.70
2020,04,11,08,22,7.70
2020,04,11,08,23,7.80
2020,04,11,08,24,7.80
2020,04,11,08,25,7.90
2020,04,11,08,26,7.90
2020,04,11,08,27,7.90
2020,04,11,08,28,7.90
2020,04,11,08,29,8.00
2020,04,11,08,30,8.00
2020,04,11,08,31,8.20
2020,04,11,08,32,8.20
2020,04,11,08,33,8.20
2020,04,11,08,34,8.30
2020,04,11,08,35,8.30
2020,04,11,08,36,8.30
2020,04,11,08,37,8.40
2020,04,11,08,38,8.40
2020,04,11,08,39,8.50
2020,04,11,08,40,8.60
2020,04,11,08,41,8.60
2020,04,11,08,42,8.70
2020,04,11,08,43,8.80
2020,04,11,08,44,8.80
2020,04,11,08,45,8.80
2020,04,11,08,46,8.90
2020,04,11,08,47,8.90
2020,04,11,08,48,9.00
2020,04,11,08,49,9.10
2020,04,11,08,50,9.10
2020,04,11,08,51,9.10
2020,04,11,08,52,9.20
2020,04,11,08,53,9.20
2020,04,11,08,54,9.30
2020,04,11,08,55,9.30
2020,04,11,08,56,9.40
2020,04,11,08,57,9.40
2020,04,11,08,58,9.50
2020,04,11,08,59,9.60
2020,04,11,09,00,9.70
2020,04,11,09,01,9.80
2020,04,11,09,02,9.90
2020,04,11,09,03,10.00
2020,04,11,09,04,10.00
2020,04,11,09,05,10.10
2020,04,11,09,06,10.00
2020,04,11,09,07,10.10
2020,04,11,09,08,10.10
2020,04,11,09,09,10.10
2020,04,11,09,10,10.20
2020,04,11,09,11,10.30
2020,04,11,09,12,10.30
2020,04,11,09,13,10.40
2020,04,11,09,14,10.50
2020,04,11,09,15,10.50
2020,04,11,09,16,10.50
2020,04,11,09,17,10.50
2020,04,11,09,18,10.60
2020,04,11,09,19,10.60
2020,04,11,09,20,10.60
2020,04,11,09,21,10.70
2020,04,11,09,22,10.70
2020,04,11,09,23,10.80
2020,04,11,09,24,10.80
2020,04,11,09,25,10.80
2020,04,11,09,26,10.90
2020,04,11,09,27,11.00
2020,04,11,09,28,10.90
2020,04,11,09,29,10.90
2020,04,11,09,30,10.80
2020,04,11,09,31,10.90
2020,04,11,09,32,10.90
2020,04,11,09,33,10.90
2020,04,11,09,34,10.90
2020,04,11,09,35,10.90
2020,04,11,09,36,11.00
2020,04,11,09,37,11.00
2020,04,11,09,38,11.00
2020,04,11,09,39,11.10
2020,04,11,09,40,11.10
2020,04,11,09,41,11.10
2020,04,11,09,42,11.10
2020,04,11,09,43,11.20
2020,04,11,09,44,11.20
2020,04,11,09,45,11.20
2020,04,11,09,46,11.30
2020,04,11,09,47,11.40
2020,04,11,09,48,11.50
2020,04,11,09,49,11.60
2020,04,11,09,50,11.70
2020,04,11,09,51,11.70
2020,04,11,09,52,11.80
2020,04,11,09,53,11.80
2020,04,11,09,54,11.90
2020,04,11,09,55,11.90
2020,04,11,09,56,12.00
2020,04,11,09,57,12.00
2020,04,11,09,58,12.00
2020,04,11,09,59,12.00
2020,04,11,10,00,12.00
2020,04,11,10,01,12.00
2020,04,11,10,02,12.00
2020,04,11,10,03,12.10
2020,04,11,10,04,12.10
2020,04,11,10,05,12.20
2020,04,11,10,06,12.30
2020,04,11,10,07,12.30
2020,04,11,10,08,12.30
2020,04,11,10,09,12.30
2020,04,11,10,10,12.30
2020,04,11,10,11,12.40
2020,04,11,10,12,12.40
2020,04,11,10,13,12.30
2020,04,11,10,14,12.40
2020,04,11,10,15,12.40
2020,04,11,10,16,12.50
2020,04,11,10,17,12.60
2020,04,11,10,18,12.70
2020,04,11,10,19,12.80
2020,04,11,10,20,12.90
2020,04,11,10,21,12.90
2020,04,11,10,22,12.90
2020,04,11,10,23,12.90
2020,04,11,10,24,12.70
2020,04,11,10,25,12.70
2020,04,11,10,26,12.80
2020,04,11,10,27,12.80
2020,04,11,10,28,12.90
2020,04,11,10,29,12.90
2020,04,11,10,30,13.00
2020,04,11,10,31,13.00
2020,04,11,10,32,13.00
2020,04,11,10,33,12.90
2020,04,11,10,34,12.80
2020,04,11,10,35,12.60
2020,04,11,10,36,12.60
2020,04,11,10,37,12.60
2020,04,11,10,38,12.60
2020,04,11,10,39,12.70
2020,04,11,10,40,12.80
2020,04,11,10,41,12.90
2020,04,11,10,42,13.00
2020,04,11,10,43,12.90
2020,04,11,10,44,12.80
2020,04,11,10,45,12.80
2020,04,11,10,46,12.90
2020,04,11,10,47,13.00
2020,04,11,10,48,13.10
2020,04,11,10,49,13.20
2020,04,11,10,50,13.20
2020,04,11,10,51,13.20
2020,04,11,10,52,13.20
2020,04,11,10,53,13.20
2020,04,11,10,54,13.20
2020,04,11,10,55,13.20
2020,04,11,10,56,13.20
2020,04,11,10,57,13.20
2020,04,11,10,58,13.20
2020,04,11,10,59,13.10
2020,04,11,11,00,13.00
2020,04,11,11,01,12.90
2020,04,11,11,02,12.80
2020,04,11,11,03,12.80
2020,04,11,11,04,12.80
2020,04,11,11,05,13.00
2020,04,11,11,06,13.10
2020,04,11,11,07,13.30
2020,04,11,11,08,13.40
2020,04,11,11,09,13.50
2020,04,11,11,10,13.60
2020,04,11,11,11,13.60
2020,04,11,11,12,13.60
2020,04,11,11,13,13.60
2020,04,11,11,14,13.60
2020,04,11,11,15,13.60
2020,04,11,11,16,13.50
2020,04,11,11,17,13.40
2020,04,11,11,18,13.30
2020,04,11,11,19,13.30
2020,04,11,11,20,13.30
2020,04,11,11,21,13.30
2020,04,11,11,22,13.30
2020,04,11,11,23,13.40
2020,04,11,11,24,13.40
2020,04,11,11,25,13.40
2020,04,11,11,26,13.40
2020,04,11,11,27,13.50
2020,04,11,11,28,13.50
2020,04,11,11,29,13.60
2020,04,11,11,30,13.60
2020,04,11,11,31,13.60
2020,04,11,11,32,13.60
2020,04,11,11,33,13.70
2020,04,11,11,34,13.70
2020,04,11,11,35,13.70
2020,04,11,11,36,13.60
2020,04,11,11,37,13.60
2020,04,11,11,38,13.60
2020,04,11,11,39,13.50
2020,04,11,11,40,13.40
2020,04,11,11,41,13.40
2020,04,11,11,42,13.40
2020,04,11,11,43,13.30
2020,04,11,11,44,13.30
2020,04,11,11,45,13.20
2020,04,11,11,46,13.20
2020,04,11,11,47,13.30
2020,04,11,11,48,13.40
2020,04,11,11,49,13.50
2020,04,11,11,50,13.70
2020,04,11,11,51,13.80
2020,04,11,11,52,13.80
2020,04,11,11,53,13.90
2020,04,11,11,54,13.80
2020,04,11,11,55,13.70
2020,04,11,11,56,13.70
2020,04,11,11,57,13.80
2020,04,11,11,58,13.90
2020,04,11,11,59,13.80
2020,04,11,12,00,13.70
2020,04,11,12,01,13.70
2020,04,11,12,02,13.60
2020,04,11,12,03,13.70
2020,04,11,12,04,13.80
2020,04,11,12,05,13.90
2020,04,11,12,06,13.90
2020,04,11,12,07,13.80
2020,04,11,12,08,13.70
2020,04,11,12,09,13.70
2020,04,11,12,10,13.70
2020,04,11,12,11,13.80
2020,04,11,12,12,13.90
2020,04,11,12,13,14.00
2020,04,11,12,14,14.10
2020,04,11,12,15,14.10
2020,04,11,12,16,14.10
2020,04,11,12,17,14.20
2020,04,11,12,18,14.20
2020,04,11,12,19,14.10
2020,04,11,12,20,14.20
2020,04,11,12,21,14.20
2020,04,11,12,22,14.10
2020,04,11,12,23,14.10
2020,04,11,12,24,14.10
2020,04,11,12,25,14.00
2020,04,11,12,26,14.00
2020,04,11,12,27,14.00
2020,04,11,12,28,14.00
2020,04,11,12,29,13.90
2020,04,11,12,30,14.00
2020,04,11,12,31,14.10
2020,04,11,12,32,14.10
2020,04,11,12,33,14.20
2020,04,11,12,34,14.20
2020,04,11,12,35,14.20
2020,04,11,12,36,14.20
2020,04,11,12,37,14.30
2020,04,11,12,38,14.30
2020,04,11,12,39,14.40
2020,04,11,12,40,14.50
2020,04,11,12,41,14.60
2020,04,11,12,42,14.60
2020,04,11,12,43,14.70
2020,04,11,12,44,14.70
2020,04,11,12,45,14.60
2020,04,11,12,46,14.60
2020,04,11,12,47,14.60
2020,04,11,12,48,14.60
2020,04,11,12,49,14.50
2020,04,11,12,50,14.50
2020,04,11,12,51,14.40
2020,04,11,12,52,14.30
2020,04,11,12,53,14.40
2020,04,11,12,54,14.30
2020,04,11,12,55,14.30
2020,04,11,12,56,14.20
2020,04,11,12,57,14.20
2020,04,11,12,58,14.20
2020,04,11,12,59,14.30
2020,04,11,13,00,14.20
2020,04,11,13,01,14.20
2020,04,11,13,02,14.20
2020,04,11,13,03,14.20
2020,04,11,13,04,14.20
2020,04,11,13,05,14.30
2020,04,11,13,06,14.30
2020,04,11,13,07,14.30
2020,04,11,13,08,14.30
2020,04,11,13,09,14.40
2020,04,11,13,10,14.50
2020,04,11,13,11,14.60
2020,04,11,13,12,14.60
2020,04,11,13,13,14.50
2020,04,11,13,14,14.50
2020,04,11,13,15,14.50
2020,04,11,13,16,14.40
2020,04,11,13,17,14.40
2020,04,11,13,18,14.40
2020,04,11,13,19,14.40
2020,04,11,13,20,14.40
2020,04,11,13,21,14.40
2020,04,11,13,22,14.40
2020,04,11,13,23,14.40
2020,04,11,13,24,14.50
2020,04,11,13,25,14.50
2020,04,11,13,26,14.50
2020,04,11,13,27,14.50
2020,04,11,13,28,14.40
2020,04,11,13,29,14.40
2020,04,11,13,30,14.30
2020,04,11,13,31,14.30
2020,04,11,13,32,14.30
2020,04,11,13,33,14.40
2020,04,11,13,34,14.50
2020,04,11,13,35,14.60
2020,04,11,13,36,14.70
2020,04,11,13,37,14.80
2020,04,11,13,38,14.80
2020,04,11,13,39,14.80
2020,04,11,13,40,14.70
2020,04,11,13,41,14.80
2020,04,11,13,42,14.80
2020,04,11,13,43,14.90
2020,04,11,13,44,15.00
2020,04,11,13,45,15.20
2020,04,11,13,46,15.30
2020,04,11,13,47,15.40
2020,04,11,13,48,15.50
2020,04,11,13,49,15.60
2020,04,11,13,50,15.50
2020,04,11,13,51,15.30
2020,04,11,13,52,15.20
2020,04,11,13,53,15.20
2020,04,11,13,54,15.10
2020,04,11,13,55,15.00
2020,04,11,13,56,15.00
2020,04,11,13,57,15.00
2020,04,11,13,58,15.00
2020,04,11,13,59,14.90
2020,04,11,14,00,14.90
2020,04,11,14,01,15.10
2020,04,11,14,02,15.10
2020,04,11,14,03,15.00
2020,04,11,14,04,14.80
2020,04,11,14,05,14.70
2020,04,11,14,06,14.80
2020,04,11,14,07,14.80
2020,04,11,14,08,14.90
2020,04,11,14,09,15.00
2020,04,11,14,10,15.00
2020,04,11,14,11,15.00
2020,04,11,14,12,15.10
2020,04,11,14,13,15.10
2020,04,11,14,14,15.10
2020,04,11,14,15,15.20
2020,04,11,14,16,15.30
2020,04,11,14,17,15.40
2020,04,11,14,18,15.50
2020,04,11,14,19,15.40
2020,04,11,14,20,15.30
2020,04,11,14,21,15.30
2020,04,11,14,22,15.30
2020,04,11,14,23,15.30
2020,04,11,14,24,15.30
2020,04,11,14,25,15.20
2020,04,11,14,26,15.10
2020,04,11,14,27,15.10
2020,04,11,14,28,15.20
2020,04,11,14,29,15.20
2020,04,11,14,30,15.30
2020,04,11,14,31,15.40
2020,04,11,14,32,15.50
2020,04,11,14,33,15.50
2020,04,11,14,34,15.60
2020,04,11,14,35,15.60
2020,04,11,14,36,15.60
2020,04,11,14,37,15.50
2020,04,11,14,38,15.50
2020,04,11,14,39,15.60
2020,04,11,14,40,15.60
2020,04,11,14,41,15.60
2020,04,11,14,42,15.60
2020,04,11,14,43,15.60
2020,04,11,14,44,15.70
2020,04,11,14,45,15.60
2020,04,11,14,46,15.50
2020,04,11,14,47,15.50
2020,04,11,14,48,15.40
2020,04,11,14,49,15.40
2020,04,11,14,50,15.40
2020,04,11,14,51,15.40
2020,04,11,14,52,15.50
2020,04,11,14,53,15.50
2020,04,11,14,54,15.60
2020,04,11,14,55,15.60
2020,04,11,14,56,15.50
2020,04,11,14,57,15.50
2020,04,11,14,58,15.40
2020,04,11,14,59,15.40
2020,04,11,15,00,15.40
2020,04,11,15,01,15.50
2020,04,11,15,02,15.60
2020,04,11,15,03,15.70
2020,04,11,15,04,15.80
2020,04,11,15,05,15.90
2020,04,11,15,06,15.90
2020,04,11,15,07,15.90
2020,04,11,15,08,15.90
2020,04,11,15,09,15.90
2020,04,11,15,10,15.90
2020,04,11,15,11,15.90
2020,04,11,15,12,16.00
2020,04,11,15,13,16.00
2020,04,11,15,14,16.10
2020,04,11,15,15,16.10
2020,04,11,15,16,16.10
2020,04,11,15,17,16.00
2020,04,11,15,18,16.00
2020,04,11,15,19,16.00
2020,04,11,15,20,16.10
2020,04,11,15,21,16.20
2020,04,11,15,22,16.20
2020,04,11,15,23,16.20
2020,04,11,15,24,16.20
2020,04,11,15,25,16.10
2020,04,11,15,26,16.10
2020,04,11,15,27,16.10
2020,04,11,15,28,16.00
2020,04,11,15,29,15.80
2020,04,11,15,30,15.80
2020,04,11,15,31,15.80
2020,04,11,15,32,15.80
2020,04,11,15,33,15.80
2020,04,11,15,34,15.90
2020,04,11,15,35,15.90
2020,04,11,15,36,15.90
2020,04,11,15,37,15.90
2020,04,11,15,38,15.90
2020,04,11,15,39,16.00
2020,04,11,15,40,16.10
2020,04,11,15,41,16.10
2020,04,11,15,42,16.10
2020,04,11,15,43,16.00
2020,04,11,15,44,16.00
2020,04,11,15,45,16.00
2020,04,11,15,46,16.00
2020,04,11,15,47,15.90
2020,04,11,15,48,15.90
2020,04,11,15,49,15.80
2020,04,11,15,50,15.80
2020,04,11,15,51,15.80
2020,04,11,15,52,15.80
2020,04,11,15,53,15.80
2020,04,11,15,54,15.80
2020,04,11,15,55,15.90
2020,04,11,15,56,16.00
2020,04,11,15,57,16.00
2020,04,11,15,58,16.00
2020,04,11,15,59,16.10
2020,04,11,16,00,16.20
2020,04,11,16,01,16.40
2020,04,11,16,02,16.50
2020,04,11,16,03,16.50
2020,04,11,16,04,16.40
2020,04,11,16,05,16.30
2020,04,11,16,06,16.20
2020,04,11,16,07,16.20
2020,04,11,16,08,16.30
2020,04,11,16,09,16.30
2020,04,11,16,10,16.40
2020,04,11,16,11,16.40
2020,04,11,16,12,16.50
2020,04,11,16,13,16.50
2020,04,11,16,14,16.50
2020,04,11,16,15,16.50
2020,04,11,16,16,16.40
2020,04,11,16,17,16.40
2020,04,11,16,18,16.40
2020,04,11,16,19,16.40
2020,04,11,16,20,16.40
2020,04,11,16,21,16.40
2020,04,11,16,22,16.50
2020,04,11,16,23,16.30
2020,04,11,16,24,16.20
2020,04,11,16,25,16.20
2020,04,11,16,26,16.20
2020,04,11,16,27,16.20
2020,04,11,16,28,16.30
2020,04,11,16,29,16.30
2020,04,11,16,30,16.30
2020,04,11,16,31,16.20
2020,04,11,16,32,16.10
2020,04,11,16,33,16.20
2020,04,11,16,34,16.20
2020,04,11,16,35,16.30
2020,04,11,16,36,16.30
2020,04,11,16,37,16.40
2020,04,11,16,38,16.40
2020,04,11,16,39,16.40
2020,04,11,16,40,16.50
2020,04,11,16,41,16.40
2020,04,11,16,42,16.30
2020,04,11,16,43,16.20
2020,04,11,16,44,16.20
2020,04,11,16,45,16.20
2020,04,11,16,46,16.30
2020,04,11,16,47,16.30
2020,04,11,16,48,16.30
2020,04,11,16,49,16.30
2020,04,11,16,50,16.30
2020,04,11,16,51,16.30
2020,04,11,16,52,16.30
2020,04,11,16,53,16.30
2020,04,11,16,54,16.30
2020,04,11,16,55,16.30
2020,04,11,16,56,16.30
2020,04,11,16,57,16.30
2020,04,11,16,58,16.30
2020,04,11,16,59,16.20
2020,04,11,17,00,16.10
2020,04,11,17,01,16.10
2020,04,11,17,02,16.20
2020,04,11,17,03,16.30
2020,04,11,17,04,16.40
2020,04,11,17,05,16.40
2020,04,11,17,06,16.30
2020,04,11,17,07,16.30
2020,04,11,17,08,16.30
2020,04,11,17,09,16.30
2020,04,11,17,10,16.30
2020,04,11,17,11,16.40
2020,04,11,17,12,16.40
2020,04,11,17,13,16.30
2020,04,11,17,14,16.40
2020,04,11,17,15,16.30
2020,04,11,17,16,16.40
2020,04,11,17,17,16.40
2020,04,11,17,18,16.50
2020,04,11,17,19,16.60
2020,04,11,17,20,16.60
2020,04,11,17,21,16.60
2020,04,11,17,22,16.60
2020,04,11,17,23,16.60
2020,04,11,17,24,16.60
2020,04,11,17,25,16.70
2020,04,11,17,26,16.70
2020,04,11,17,27,16.80
2020,04,11,17,28,16.70
2020,04,11,17,29,16.70
2020,04,11,17,30,16.60
2020,04,11,17,31,16.50
2020,04,11,17,32,16.40
2020,04,11,17,33,16.30
2020,04,11,17,34,16.30
2020,04,11,17,35,16.30
2020,04,11,17,36,16.30
2020,04,11,17,37,16.30
2020,04,11,17,38,16.20
2020,04,11,17,39,16.20
2020,04,11,17,40,16.20
2020,04,11,17,41,16.20
2020,04,11,17,42,16.20
2020,04,11,17,43,16.30